map of TAZ home
Great Circle Mapper logo
TAZ - Airport
Location
City:  Dashoguz, Turkmenistan
Near (Alt.):Khodzhakumbet
ICAO / IATA:UTAT / TAZ

Details
Type:Airport (Aerodrome, Airfield)
Use:Public/Civil
Latitude:4145'40"N (41.761111)
Longitude:5949'36"E (59.826667)
Datum:WGS 1984
Elevation:272 ft (83 m)
Variation:6.17E (WMM2015 magnetic declination)
0.06 annual change
Runways:2
Longest:8858 × 138 ft (2700 × 42 m), paved

Time
Time Zone:UTC+5
Local Time:

Weather
METAR:UTAT 040300Z VRB02MPS CAVOK 02/01 Q1016 99CLRD70 NOSIG
TAF:UTAT 040130Z 0403/0415 35006MPS 5000 BKN050 OVC100 530005
TEMPO 0403/0406 VRB02MPS 3000 BR RA OVC005

Related Locations
Nearby:
Farthest:IPC: 11257 mi / 18117 km
Easter Island (Isla de Pascua, Rapa Nui) [Mataveri Intl], VS, CL

Find:

   beyond  
but within

Other Information
Maps:
NOTAMs:
Links:
Sources:

  
flag of Turkmenistan   

Sectional Chart

Flight Planning
at skyvector.com

Satellite Image

Google Maps Satellite View

 

Copyright © 2004-2015 Karl L. Swartz. All rights reserved.
The Great Circle Mapper name and logo are trademarks of the Great Circle Mapper.
All other trademarks mentioned herein belong to their respective owners.
Please see credits for attibutions and further copyright information.

  Follow gcmap on Facebook Follow gcmap on Twitter Follow gcmap on Google+

hCard Microformat

Geo Microformat